Time,TemperatureF,DewpointF,PressureIn,WindDirection,WindDirectionDegrees,WindSpeedMPH,WindSpeedGustMPH,Humidity,HourlyPrecipIn,Conditions,Clouds,dailyrainin,SoftwareType,DateUTC
2013-04-06 00:02:00,55.0,46.0,29.79,South,170,20.0,27.0,71,-99.99,,,-99.99,,2013-04-06 05:02:00,
2013-04-06 00:12:00,54.0,46.0,29.79,SSE,160,18.0,25.0,76,-99.99,,,-99.99,,2013-04-06 05:12:00,
2013-04-06 00:22:00,54.0,46.0,29.79,SSE,160,20.0,27.0,76,-99.99,,,-99.99,,2013-04-06 05:22:00,
2013-04-06 00:32:00,54.0,46.0,29.78,SSE,160,16.0,27.0,76,-99.99,,,-99.99,,2013-04-06 05:32:00,
2013-04-06 00:42:00,54.0,46.0,29.78,SSE,160,18.0,25.0,76,-99.99,,,-99.99,,2013-04-06 05:42:00,
2013-04-06 00:51:00,54.0,46.0,29.77,SSE,160,16.0,25.0,76,-99.99,,,-99.99,,2013-04-06 05:51:00,
2013-04-06 01:02:00,54.0,46.0,29.77,SSE,160,16.0,25.0,76,-99.99,,,-99.99,,2013-04-06 06:02:00,
2013-04-06 01:12:00,54.0,46.0,29.77,South,170,18.0,25.0,76,-99.99,,,-99.99,,2013-04-06 06:12:00,
2013-04-06 01:22:00,54.0,46.0,29.77,South,170,20.0,27.0,76,-99.99,,,-99.99,,2013-04-06 06:22:00,
2013-04-06 01:32:00,54.0,46.0,29.77,South,170,18.0,25.0,76,-99.99,,,-99.99,,2013-04-06 06:32:00,
2013-04-06 01:42:00,54.0,46.0,29.77,SSE,160,16.0,25.0,76,-99.99,,,-99.99,,2013-04-06 06:42:00,
2013-04-06 01:52:00,54.0,46.0,29.76,SSE,160,15.0,24.0,76,-99.99,,,-99.99,,2013-04-06 06:52:00,
2013-04-06 02:03:00,54.0,46.0,29.76,SSE,160,15.0,24.0,76,-99.99,,,-99.99,,2013-04-06 07:03:00,
2013-04-06 02:12:00,54.0,46.0,29.76,SSE,160,16.0,28.0,76,-99.99,,,-99.99,,2013-04-06 07:12:00,
2013-04-06 02:22:00,54.0,46.0,29.76,South,170,14.0,21.0,76,-99.99,,,-99.99,,2013-04-06 07:22:00,
2013-04-06 02:33:00,54.0,46.0,29.76,South,170,12.0,23.0,76,-99.99,,,-99.99,,2013-04-06 07:33:00,
2013-04-06 02:43:00,55.0,46.0,29.76,SSE,160,16.0,24.0,71,-99.99,,,-99.99,,2013-04-06 07:43:00,
2013-04-06 02:52:00,55.0,46.0,29.74,SSE,160,16.0,25.0,71,-99.99,,,-99.99,,2013-04-06 07:52:00,
2013-04-06 03:02:00,55.0,46.0,29.74,SSE,160,16.0,25.0,71,-99.99,,,-99.99,,2013-04-06 08:02:00,
2013-04-06 03:12:00,55.0,46.0,29.74,SSE,160,15.0,23.0,71,-99.99,,,-99.99,,2013-04-06 08:12:00,
2013-04-06 03:22:00,55.0,46.0,29.74,South,170,15.0,22.0,71,-99.99,,,-99.99,,2013-04-06 08:22:00,
2013-04-06 03:32:00,55.0,46.0,29.74,South,170,15.0,23.0,71,-99.99,,,-99.99,,2013-04-06 08:32:00,
2013-04-06 03:42:00,55.0,46.0,29.74,South,180,15.0,-999.0,71,-99.99,,,-99.99,,2013-04-06 08:42:00,
2013-04-06 03:52:00,55.0,46.0,29.73,South,170,15.0,22.0,71,-99.99,,,-99.99,,2013-04-06 08:52:00,
2013-04-06 04:02:00,55.0,46.0,29.73,South,170,15.0,22.0,71,-99.99,,,-99.99,,2013-04-06 09:02:00,
2013-04-06 04:12:00,55.0,46.0,29.72,South,170,15.0,22.0,71,-99.99,,,-99.99,,2013-04-06 09:12:00,
2013-04-06 04:22:00,55.0,46.0,29.72,South,190,16.0,-999.0,71,-99.99,,,-99.99,,2013-04-06 09:22:00,
2013-04-06 04:32:00,55.0,46.0,29.72,South,180,18.0,27.0,71,-99.99,,,-99.99,,2013-04-06 09:32:00,
2013-04-06 04:42:00,55.0,46.0,29.70,South,180,18.0,25.0,71,-99.99,,,-99.99,,2013-04-06 09:42:00,
2013-04-06 04:52:00,55.0,46.0,29.70,South,180,21.0,25.0,71,-99.99,,,-99.99,,2013-04-06 09:52:00,
2013-04-06 05:03:00,55.0,46.0,29.70,South,180,21.0,25.0,71,-99.99,,,-99.99,,2013-04-06 10:03:00,
2013-04-06 05:13:00,55.0,46.0,29.71,South,180,18.0,22.0,71,-99.99,,,-99.99,,2013-04-06 10:13:00,
2013-04-06 05:22:00,55.0,46.0,29.70,South,180,20.0,28.0,71,-99.99,,,-99.99,,2013-04-06 10:22:00,
2013-04-06 05:33:00,55.0,46.0,29.70,South,180,18.0,28.0,71,-99.99,,,-99.99,,2013-04-06 10:33:00,
2013-04-06 05:42:00,55.0,46.0,29.69,South,180,17.0,25.0,71,-99.99,,,-99.99,,2013-04-06 10:42:00,
2013-04-06 05:52:00,55.0,46.0,29.69,South,180,20.0,25.0,71,-99.99,,,-99.99,,2013-04-06 10:52:00,
2013-04-06 06:02:00,55.0,46.0,29.69,South,180,20.0,25.0,71,-99.99,,,-99.99,,2013-04-06 11:02:00,
2013-04-06 06:12:00,55.0,46.0,29.70,South,190,17.0,28.0,71,-99.99,,,-99.99,,2013-04-06 11:12:00,
2013-04-06 06:22:00,55.0,46.0,29.70,South,180,17.0,-999.0,71,-99.99,,,-99.99,,2013-04-06 11:22:00,
2013-04-06 06:32:00,55.0,46.0,29.70,South,180,16.0,23.0,71,-99.99,,,-99.99,,2013-04-06 11:32:00,
2013-04-06 06:42:00,55.0,46.0,29.71,South,190,17.0,24.0,71,-99.99,,,-99.99,,2013-04-06 11:42:00,
2013-04-06 06:52:00,55.0,46.0,29.71,South,190,17.0,-999.0,71,-99.99,,,-99.99,,2013-04-06 11:52:00,
2013-04-06 07:02:00,55.0,46.0,29.71,South,190,17.0,-999.0,71,-99.99,,,-99.99,,2013-04-06 12:02:00,
2013-04-06 07:12:00,55.0,46.0,29.72,South,190,15.0,22.0,71,-99.99,,,-99.99,,2013-04-06 12:12:00,
2013-04-06 07:22:00,55.0,46.0,29.73,South,190,14.0,21.0,71,-99.99,,,-99.99,,2013-04-06 12:22:00,
2013-04-06 07:32:00,55.0,46.0,29.74,South,190,16.0,-999.0,71,-99.99,,,-99.99,,2013-04-06 12:32:00,
2013-04-06 07:43:00,55.0,46.0,29.74,South,190,16.0,-999.0,71,-99.99,,,-99.99,,2013-04-06 12:43:00,
2013-04-06 07:52:00,54.0,46.0,29.74,South,190,14.0,-999.0,76,-99.99,,,-99.99,,2013-04-06 12:52:00,
2013-04-06 08:02:00,54.0,46.0,29.74,South,190,14.0,-999.0,76,-99.99,,,-99.99,,2013-04-06 13:02:00,
2013-04-06 08:12:00,55.0,46.0,29.74,South,190,16.0,25.0,71,-99.99,,,-99.99,,2013-04-06 13:12:00,
2013-04-06 08:23:00,55.0,46.0,29.75,SSW,210,14.0,-999.0,71,-99.99,,,-99.99,,2013-04-06 13:23:00,
2013-04-06 08:32:00,55.0,48.0,29.75,SW,230,9.0,20.0,76,-99.99,,,-99.99,,2013-04-06 13:32:00,
2013-04-06 08:42:00,55.0,48.0,29.76,SSW,200,16.0,24.0,76,-99.99,,,-99.99,,2013-04-06 13:42:00,
2013-04-06 08:52:00,57.0,48.0,29.76,SSW,210,14.0,22.0,71,-99.99,,,-99.99,,2013-04-06 13:52:00,
2013-04-06 09:03:00,57.0,48.0,29.76,SSW,210,14.0,22.0,71,-99.99,,,-99.99,,2013-04-06 14:03:00,
2013-04-06 09:12:00,57.0,48.0,29.77,SW,220,14.0,21.0,71,-99.99,,,-99.99,,2013-04-06 14:12:00,
2013-04-06 09:22:00,59.0,48.0,29.77,SSW,210,14.0,-999.0,67,-99.99,,,-99.99,,2013-04-06 14:22:00,
2013-04-06 09:32:00,61.0,48.0,29.77,SSW,210,14.0,21.0,63,-99.99,,,-99.99,,2013-04-06 14:32:00,
2013-04-06 09:42:00,61.0,48.0,29.77,SSW,210,15.0,-999.0,63,-99.99,,,-99.99,,2013-04-06 14:42:00,
2013-04-06 09:52:00,61.0,48.0,29.77,SW,220,12.0,-999.0,63,-99.99,,,-99.99,,2013-04-06 14:52:00,
2013-04-06 10:02:00,61.0,48.0,29.77,SW,220,12.0,-999.0,63,-99.99,,,-99.99,,2013-04-06 15:02:00,
2013-04-06 10:12:00,63.0,48.0,29.77,SW,220,10.0,16.0,59,-99.99,,,-99.99,,2013-04-06 15:12:00,
2013-04-06 10:22:00,64.0,48.0,29.77,WSW,240,8.0,-999.0,55,-99.99,,,-99.99,,2013-04-06 15:22:00,
2013-04-06 10:33:00,64.0,48.0,29.77,WSW,250,9.0,-999.0,55,-99.99,,,-99.99,,2013-04-06 15:33:00,
2013-04-06 10:43:00,66.0,48.0,29.77,WNW,290,9.0,-999.0,52,-99.99,,,-99.99,,2013-04-06 15:43:00,
2013-04-06 10:52:00,68.0,46.0,29.77,NW,310,10.0,18.0,45,-99.99,,,-99.99,,2013-04-06 15:52:00,
2013-04-06 11:05:00,68.0,46.0,29.77,NW,310,10.0,18.0,45,-99.99,,,-99.99,,2013-04-06 16:05:00,
2013-04-06 11:17:00,70.0,46.0,29.77,NNW,330,9.0,-999.0,43,-99.99,,,-99.99,,2013-04-06 16:17:00,
2013-04-06 11:23:00,70.0,46.0,29.77,NNW,330,14.0,21.0,43,-99.99,,,-99.99,,2013-04-06 16:23:00,
2013-04-06 11:32:00,70.0,46.0,29.78,NNW,340,18.0,23.0,43,-99.99,,,-99.99,,2013-04-06 16:32:00,
2013-04-06 11:42:00,72.0,45.0,29.78,NNW,330,16.0,23.0,37,-99.99,,,-99.99,,2013-04-06 16:42:00,
2013-04-06 11:52:00,72.0,45.0,29.78,NW,320,17.0,-999.0,37,-99.99,,,-99.99,,2013-04-06 16:52:00,
2013-04-06 12:02:00,72.0,45.0,29.78,NW,320,17.0,-999.0,37,-99.99,,,-99.99,,2013-04-06 17:02:00,
2013-04-06 12:12:00,72.0,46.0,29.79,NNW,330,17.0,21.0,40,-99.99,,,-99.99,,2013-04-06 17:12:00,
2013-04-06 12:22:00,72.0,45.0,29.79,NW,310,15.0,24.0,37,-99.99,,,-99.99,,2013-04-06 17:22:00,
2013-04-06 12:32:00,72.0,45.0,29.79,NNW,330,13.0,21.0,37,-99.99,,,-99.99,,2013-04-06 17:32:00,
2013-04-06 12:42:00,72.0,46.0,29.79,NNW,330,13.0,-999.0,40,-99.99,,,-99.99,,2013-04-06 17:42:00,
2013-04-06 12:52:00,72.0,46.0,29.79,NNW,340,12.0,18.0,40,-99.99,,,-99.99,,2013-04-06 17:52:00,
2013-04-06 13:03:00,72.0,46.0,29.79,NNW,340,12.0,18.0,40,-99.99,,,-99.99,,2013-04-06 18:03:00,
2013-04-06 13:12:00,72.0,46.0,29.79,NW,310,10.0,17.0,40,-99.99,,,-99.99,,2013-04-06 18:12:00,
2013-04-06 13:23:00,72.0,46.0,29.79,NNW,340,10.0,17.0,40,-99.99,,,-99.99,,2013-04-06 18:23:00,
2013-04-06 13:32:00,72.0,46.0,29.79,NNW,330,13.0,17.0,40,-99.99,,,-99.99,,2013-04-06 18:32:00,
2013-04-06 13:42:00,72.0,45.0,29.79,NNW,330,13.0,20.0,37,-99.99,,,-99.99,,2013-04-06 18:42:00,
2013-04-06 13:52:00,72.0,46.0,29.79,NNW,340,10.0,-999.0,40,-99.99,,,-99.99,,2013-04-06 18:52:00,
2013-04-06 14:02:00,72.0,46.0,29.79,NNW,340,10.0,-999.0,40,-99.99,,,-99.99,,2013-04-06 19:02:00,
2013-04-06 14:12:00,73.0,46.0,29.79,NW,310,8.0,-999.0,38,-99.99,,,-99.99,,2013-04-06 19:12:00,
2013-04-06 14:22:00,72.0,45.0,29.79,NW,320,10.0,-999.0,37,-99.99,,,-99.99,,2013-04-06 19:22:00,
2013-04-06 14:32:00,73.0,46.0,29.79,WNW,300,9.0,-999.0,38,-99.99,,,-99.99,,2013-04-06 19:32:00,
2013-04-06 14:42:00,73.0,45.0,29.79,NW,310,9.0,-999.0,35,-99.99,,,-99.99,,2013-04-06 19:42:00,
2013-04-06 14:52:00,72.0,45.0,29.80,WNW,300,7.0,-999.0,37,-99.99,,,-99.99,,2013-04-06 19:52:00,
2013-04-06 15:02:00,72.0,45.0,29.80,WNW,300,7.0,-999.0,37,-99.99,,,-99.99,,2013-04-06 20:02:00,
2013-04-06 15:12:00,73.0,45.0,29.79,WNW,290,8.0,17.0,35,-99.99,,,-99.99,,2013-04-06 20:12:00,
2013-04-06 15:22:00,73.0,45.0,29.79,NW,320,5.0,-999.0,35,-99.99,,,-99.99,,2013-04-06 20:22:00,
2013-04-06 15:32:00,75.0,45.0,29.79,WNW,290,12.0,-999.0,33,-99.99,,,-99.99,,2013-04-06 20:32:00,
2013-04-06 15:42:00,75.0,45.0,29.79,NW,310,13.0,18.0,33,-99.99,,,-99.99,,2013-04-06 20:42:00,
2013-04-06 15:52:00,73.0,45.0,29.80,WNW,300,8.0,16.0,35,-99.99,,,-99.99,,2013-04-06 20:52:00,
2013-04-06 16:02:00,73.0,45.0,29.80,WNW,300,8.0,16.0,35,-99.99,,,-99.99,,2013-04-06 21:02:00,
2013-04-06 16:13:00,73.0,45.0,29.80,WNW,290,10.0,-999.0,35,-99.99,,,-99.99,,2013-04-06 21:13:00,
2013-04-06 16:22:00,73.0,45.0,29.80,WNW,290,10.0,-999.0,35,-99.99,,,-99.99,,2013-04-06 21:22:00,
2013-04-06 16:33:00,75.0,43.0,29.80,West,260,12.0,-999.0,31,-99.99,,,-99.99,,2013-04-06 21:33:00,
2013-04-06 16:43:00,75.0,43.0,29.80,WSW,250,7.0,-999.0,31,-99.99,,,-99.99,,2013-04-06 21:43:00,
2013-04-06 16:52:00,73.0,45.0,29.79,West,280,10.0,-999.0,35,-99.99,,,-99.99,,2013-04-06 21:52:00,
2013-04-06 17:03:00,73.0,45.0,29.79,West,280,10.0,-999.0,35,-99.99,,,-99.99,,2013-04-06 22:03:00,
2013-04-06 17:13:00,73.0,43.0,29.79,WNW,290,10.0,-999.0,33,-99.99,,,-99.99,,2013-04-06 22:13:00,
2013-04-06 17:22:00,73.0,43.0,29.79,WNW,290,7.0,-999.0,33,-99.99,,,-99.99,,2013-04-06 22:22:00,
2013-04-06 17:34:00,75.0,45.0,29.79,NW,310,14.0,-999.0,33,-99.99,,,-99.99,,2013-04-06 22:34:00,
2013-04-06 17:43:00,75.0,43.0,29.79,NW,310,13.0,16.0,31,-99.99,,,-99.99,,2013-04-06 22:43:00,
2013-04-06 17:53:00,73.0,43.0,29.79,NW,310,14.0,-999.0,33,-99.99,,,-99.99,,2013-04-06 22:53:00,
2013-04-06 18:03:00,73.0,43.0,29.79,NW,310,14.0,-999.0,33,-99.99,,,-99.99,,2013-04-06 23:03:00,
2013-04-06 18:13:00,73.0,43.0,29.79,NW,320,7.0,-999.0,33,-99.99,,,-99.99,,2013-04-06 23:13:00,
2013-04-06 18:23:00,73.0,41.0,29.79,WNW,300,8.0,-999.0,31,-99.99,,,-99.99,,2013-04-06 23:23:00,
2013-04-06 18:42:00,70.0,45.0,29.79,NNW,340,7.0,-999.0,40,-99.99,,,-99.99,,2013-04-06 23:42:00,
2013-04-06 18:52:00,68.0,46.0,29.79,North,350,7.0,-999.0,45,-99.99,,,-99.99,,2013-04-06 23:52:00,
2013-04-06 19:02:00,68.0,46.0,29.79,North,350,7.0,-999.0,45,-99.99,,,-99.99,,2013-04-07 00:02:00,
2013-04-06 19:12:00,68.0,46.0,29.79,NNW,340,6.0,-999.0,45,-99.99,,,-99.99,,2013-04-07 00:12:00,
2013-04-06 19:22:00,68.0,48.0,29.79,NNW,340,5.0,-999.0,49,-99.99,,,-99.99,,2013-04-07 00:22:00,
2013-04-06 19:32:00,68.0,46.0,29.79,North,350,5.0,-999.0,45,-99.99,,,-99.99,,2013-04-07 00:32:00,
2013-04-06 19:42:00,68.0,46.0,29.79,North,350,6.0,-999.0,45,-99.99,,,-99.99,,2013-04-07 00:42:00,
2013-04-06 19:52:00,64.0,48.0,29.80,North,350,5.0,-999.0,55,-99.99,,,-99.99,,2013-04-07 00:52:00,
2013-04-06 20:02:00,64.0,48.0,29.80,North,350,5.0,-999.0,55,-99.99,,,-99.99,,2013-04-07 01:02:00,
2013-04-06 20:12:00,68.0,43.0,29.81,North,0,0.0,-999.0,40,-99.99,,,-99.99,,2013-04-07 01:12:00,
2013-04-06 20:22:00,64.0,46.0,29.81,North,0,0.0,-999.0,51,-99.99,,,-99.99,,2013-04-07 01:22:00,
2013-04-06 20:32:00,64.0,45.0,29.81,North,0,0.0,-999.0,48,-99.99,,,-99.99,,2013-04-07 01:32:00,
2013-04-06 20:42:00,61.0,46.0,29.82,North,0,0.0,-999.0,59,-99.99,,,-99.99,,2013-04-07 01:42:00,
2013-04-06 20:52:00,59.0,46.0,29.82,SW,220,3.0,-999.0,62,-99.99,,,-99.99,,2013-04-07 01:52:00,
2013-04-06 21:03:00,59.0,46.0,29.82,SW,220,3.0,-999.0,62,-99.99,,,-99.99,,2013-04-07 02:03:00,
2013-04-06 21:12:00,61.0,45.0,29.83,North,0,0.0,-999.0,55,-99.99,,,-99.99,,2013-04-07 02:12:00,
2013-04-06 21:23:00,59.0,45.0,29.84,South,190,3.0,-999.0,58,-99.99,,,-99.99,,2013-04-07 02:23:00,
2013-04-06 21:32:00,61.0,45.0,29.85,South,190,3.0,-999.0,55,-99.99,,,-99.99,,2013-04-07 02:32:00,
2013-04-06 21:42:00,61.0,45.0,29.85,North,0,0.0,-999.0,55,-99.99,,,-99.99,,2013-04-07 02:42:00,
2013-04-06 21:52:00,57.0,45.0,29.86,North,350,6.0,-999.0,62,-99.99,,,-99.99,,2013-04-07 02:52:00,
2013-04-06 22:02:00,57.0,45.0,29.86,North,350,6.0,-999.0,62,-99.99,,,-99.99,,2013-04-07 03:02:00,
2013-04-06 22:12:00,52.0,46.0,29.86,North,0,0.0,-999.0,81,-99.99,,,-99.99,,2013-04-07 03:12:00,
2013-04-06 22:22:00,54.0,46.0,29.87,North,0,0.0,-999.0,76,-99.99,,,-99.99,,2013-04-07 03:22:00,
2013-04-06 22:33:00,54.0,46.0,29.87,North,0,0.0,-999.0,76,-99.99,,,-99.99,,2013-04-07 03:33:00,
2013-04-06 22:43:00,54.0,46.0,29.87,North,0,0.0,-999.0,76,-99.99,,,-99.99,,2013-04-07 03:43:00,
2013-04-06 22:53:00,54.0,46.0,29.87,North,0,0.0,-999.0,76,-99.99,,,-99.99,,2013-04-07 03:53:00,
2013-04-06 23:03:00,54.0,46.0,29.87,North,0,0.0,-999.0,76,-99.99,,,-99.99,,2013-04-07 04:03:00,
2013-04-06 23:13:00,55.0,46.0,29.87,NE,50,3.0,-999.0,71,-99.99,,,-99.99,,2013-04-07 04:13:00,
2013-04-06 23:23:00,55.0,46.0,29.87,East,80,5.0,-999.0,71,-99.99,,,-99.99,,2013-04-07 04:23:00,
2013-04-06 23:32:00,54.0,46.0,29.87,East,80,5.0,-999.0,76,-99.99,,,-99.99,,2013-04-07 04:32:00,
2013-04-06 23:43:00,55.0,45.0,29.87,East,100,5.0,-999.0,66,-99.99,,,-99.99,,2013-04-07 04:43:00,
2013-04-06 23:52:00,61.0,43.0,29.87,East,100,3.0,-999.0,51,-99.99,,,-99.99,,2013-04-07 04:52:00,